Powrót do katalogu

OPS 4682 DEB

AktywnyPO
NORAD 51504·DEBRIS·🇺🇸 United States

Wystrzelony Apr 3, 1965 z Vandenberg Space Force Base

Loading…

Następne Przeloty (najbliższe 24 godziny)

TLE

ŚwieżeSource: Space-Track

Epoka: Sep 14, 2026, 13:24 UTC

1 51504U 65027GQ  26257.55866891  .00000268  00000-0  89612-3 0  9990
2 51504  90.2406 356.9762 0030106 230.6463 129.1990 12.97537248533280

Śledź OPS 4682 DEB w czasie rzeczywistym z AllMySat

Download on the App Store